Weather History for Chicago Lansing, IL

Change the Weather History Date:

Friday, October 5, 2012

  Actual Average (KMDW) Record (KMDW)
Temperature  
Mean Temperature 46 °F 58 °F  
Max Temperature 49 °F 67 °F 89 °F (1997)
Min Temperature 41 °F 49 °F 31 °F (1980)
Degree Days  
Heating Degree Days 19 8  
Month to date heating degree days 36  
Since 1 July heating degree days 118  
Cooling Degree Days 0 1  
Month to date cooling degree days 5  
Year to date cooling degree days 1034  
Moisture  
Dew Point 35 °F    
Average Humidity 69    
Maximum Humidity 85    
Minimum Humidity 46    
Precipitation  
Precipitation 0.02 in 0.10 in 2.01 in (1955)
Month to date precipitation 0.50  
Year to date precipitation 30.36  
Sea Level Pressure  
Sea Level Pressure 30.12 in    
Wind  
Wind Speed 7 mph (West)    
Max Wind Speed 12 mph    
Max Gust Speed 17 mph    
Visibility 10 miles    
Events Rain    
T = Trace of Precipitation, MM = Missing Value Source: NWS Daily Summary

Daily Weather History Graph

Daily Weather History Graph

Search for Another Location

Airport:

Trip Planner

Search our weather history database for the weather conditions in past years. The results will help you decide how hot, cold, wet, or windy it might be!

Date:

Astronomy

Oct. 05, 2012 Rise Set
Actual Time 6:51 AM CDT 6:24 PM CDT
Civil Twilight 6:24 AM CDT 6:51 PM CDT
Nautical Twilight 5:51 AM CDT 7:24 PM CDT
Astronomical Twilight 5:19 AM CDT 7:56 PM CDT
Moon 9:44 PM CDT (10/5) 12:02 PM CDT (10/5)
Length of Visible Light 12h 27m
Length of Day
11h 32m
Waning Gibbous, 74% of the Moon is Illuminated
Oct 5
Waning Gibbous
Oct 8
Last Quarter
Oct 15
New
Oct 21
First Quarter
Oct 29
Full

Hourly Weather History & Observations

Time (CDT) Temp. Windchill Dew Point Humidity Pressure Visibility Wind Dir Wind Speed Gust Speed Precip Events Conditions
12:15 AM 51.1 °F - 45.1 °F 80% 30.13 in 10.0 mi West 6.9 mph - N/A   Mostly Cloudy
12:35 AM 50.4 °F - 44.6 °F 81% 30.13 in 10.0 mi West 4.6 mph - N/A   Scattered Clouds
12:55 AM 50.0 °F - 42.8 °F 76% 30.12 in 10.0 mi West 5.8 mph - N/A   Clear
1:15 AM 48.9 °F - 43.0 °F 80% 30.11 in 10.0 mi WNW 3.5 mph - N/A   Clear
1:35 AM 48.4 °F - 42.1 °F 79% 30.13 in 10.0 mi West 5.8 mph - N/A   Clear
1:55 AM 47.3 °F - 42.8 °F 84% 30.13 in 10.0 mi West 5.8 mph - N/A   Clear
2:15 AM 48.4 °F - 42.8 °F 81% 30.15 in 10.0 mi West 6.9 mph - N/A   Clear
2:35 AM 48.6 °F - 41.2 °F 76% 30.17 in 10.0 mi West 10.4 mph - N/A   Clear
2:55 AM 48.6 °F - 40.1 °F 73% 30.16 in 10.0 mi West 6.9 mph - N/A   Clear
3:15 AM 48.2 °F - 38.1 °F 68% 30.16 in 10.0 mi West 10.4 mph 16.1 mph N/A Rain Light Rain
3:35 AM 46.8 °F - 37.2 °F 69% 30.14 in 10.0 mi WNW 9.2 mph - 0.01 in Rain Rain
3:55 AM 46.2 °F 42.7 °F 37.4 °F 71% 30.14 in 10.0 mi WNW 6.9 mph - 0.01 in   Mostly Cloudy
4:15 AM 45.9 °F 43.6 °F 37.4 °F 72% 30.13 in 10.0 mi NW 4.6 mph - N/A   Scattered Clouds
4:35 AM 46.0 °F 43.9 °F 37.0 °F 71% 30.15 in 10.0 mi WNW 4.6 mph - N/A   Scattered Clouds
4:55 AM 46.0 °F 43.1 °F 35.8 °F 67% 30.15 in 10.0 mi West 5.8 mph - N/A   Scattered Clouds
5:15 AM 45.7 °F 41.5 °F 36.5 °F 70% 30.15 in 10.0 mi West 8.1 mph - N/A   Scattered Clouds
5:35 AM 45.7 °F 42.7 °F 35.4 °F 67% 30.16 in 10.0 mi WNW 5.8 mph - N/A   Clear
5:55 AM 45.5 °F 43.2 °F 35.1 °F 67% 30.15 in 10.0 mi WNW 4.6 mph - N/A   Clear
6:15 AM 45.3 °F 41.6 °F 34.9 °F 67% 30.15 in 10.0 mi West 6.9 mph - N/A   Clear
6:35 AM 44.8 °F 41.6 °F 34.9 °F 68% 30.16 in 10.0 mi WNW 5.8 mph - N/A   Scattered Clouds
6:55 AM 44.2 °F 41.0 °F 34.2 °F 68% 30.15 in 10.0 mi NW 5.8 mph - N/A   Scattered Clouds
7:15 AM 44.1 °F 41.5 °F 34.0 °F 68% 30.15 in 10.0 mi WNW 4.6 mph - N/A   Clear
7:35 AM 43.7 °F 40.3 °F 34.0 °F 69% 30.15 in 10.0 mi WNW 5.8 mph - N/A   Scattered Clouds
7:55 AM 43.9 °F 40.5 °F 32.9 °F 65% 30.15 in 10.0 mi WNW 5.8 mph - N/A   Clear
8:15 AM 44.1 °F 38.1 °F 33.1 °F 65% 30.17 in 10.0 mi West 11.5 mph - N/A   Clear
8:35 AM 44.2 °F 41.0 °F 33.8 °F 67% 30.16 in 10.0 mi West 5.8 mph - N/A   Clear
8:55 AM 44.6 °F 40.2 °F 33.3 °F 64% 30.16 in 10.0 mi West 8.1 mph - N/A   Clear
9:15 AM 45.5 °F 41.8 °F 33.3 °F 62% 30.16 in 10.0 mi WNW 6.9 mph - N/A   Clear
9:35 AM 46.4 °F 42.4 °F 32.0 °F 57% 30.16 in 10.0 mi WNW 8.1 mph 17.3 mph N/A   Clear
9:55 AM 46.0 °F 41.9 °F 32.5 °F 59% 30.16 in 10.0 mi West 8.1 mph - N/A   Clear
10:15 AM 46.4 °F 41.9 °F 32.5 °F 59% 30.14 in 10.0 mi West 9.2 mph - N/A   Scattered Clouds
10:35 AM 46.4 °F 41.9 °F 32.7 °F 59% 30.15 in 10.0 mi West 9.2 mph - N/A   Mostly Cloudy
10:55 AM 46.0 °F 41.9 °F 33.3 °F 61% 30.15 in 10.0 mi West 8.1 mph - N/A   Overcast
11:15 AM 45.5 °F 41.8 °F 32.4 °F 60% 30.14 in 10.0 mi West 6.9 mph - N/A   Overcast
11:35 AM 45.7 °F 41.0 °F 34.0 °F 64% 30.14 in 10.0 mi West 9.2 mph - N/A Rain Light Rain
11:55 AM 45.0 °F 41.2 °F 33.4 °F 64% 30.15 in 10.0 mi WNW 6.9 mph - N/A Rain Light Rain
12:15 PM 44.8 °F 39.4 °F 34.3 °F 67% 30.15 in 10.0 mi West 10.4 mph - N/A Rain Light Rain
12:35 PM 44.6 °F 39.2 °F 34.5 °F 68% 30.14 in 10.0 mi West 10.4 mph - N/A   Overcast
12:55 PM 44.2 °F 40.3 °F 35.2 °F 71% 30.13 in 10.0 mi WSW 6.9 mph - N/A Rain Light Rain
1:15 PM 44.8 °F 39.9 °F 34.5 °F 67% 30.13 in 10.0 mi West 9.2 mph - N/A   Overcast
1:35 PM 44.6 °F 39.7 °F 34.5 °F 68% 30.13 in 10.0 mi WSW 9.2 mph - N/A   Overcast
1:55 PM 42.8 °F 38.0 °F 35.6 °F 76% 30.11 in 10.0 mi WSW 8.1 mph - N/A Rain Rain
2:15 PM 43.0 °F 38.2 °F 37.0 °F 80% 30.10 in 10.0 mi WSW 8.1 mph - 0.01 in Rain Light Rain
2:35 PM 43.0 °F 38.2 °F 37.2 °F 80% 30.09 in 10.0 mi SW 8.1 mph - 0.01 in Rain Light Rain
2:55 PM 43.0 °F 38.2 °F 37.8 °F 82% 30.10 in 10.0 mi SW 8.1 mph - 0.01 in Rain Light Rain
3:15 PM 43.3 °F 38.1 °F 38.5 °F 83% 30.10 in 10.0 mi WSW 9.2 mph - N/A   Light Drizzle
3:35 PM 43.5 °F 38.3 °F 38.5 °F 82% 30.09 in 10.0 mi WSW 9.2 mph - N/A Rain Light Rain
3:55 PM 43.7 °F 39.1 °F 38.8 °F 83% 30.09 in 10.0 mi SW 8.1 mph - N/A   Overcast
4:15 PM 43.7 °F 38.6 °F 39.4 °F 85% 30.09 in 10.0 mi SW 9.2 mph - N/A   Overcast
4:35 PM 44.1 °F 40.8 °F 38.5 °F 81% 30.07 in 10.0 mi SSW 5.8 mph - N/A   Overcast
4:55 PM 44.2 °F 39.2 °F 38.5 °F 80% 30.08 in 10.0 mi WSW 9.2 mph - N/A   Overcast
5:15 PM 44.4 °F 40.0 °F 38.7 °F 80% 30.09 in 10.0 mi SW 8.1 mph - N/A   Overcast
5:35 PM 44.8 °F 39.4 °F 37.4 °F 75% 30.09 in 10.0 mi WSW 10.4 mph - N/A   Overcast
5:55 PM 44.8 °F 39.9 °F 36.0 °F 71% 30.09 in 10.0 mi WSW 9.2 mph - N/A   Overcast
6:15 PM 44.6 °F 39.2 °F 36.0 °F 72% 30.09 in 10.0 mi SW 10.4 mph - N/A   Overcast
6:35 PM 44.2 °F 38.8 °F 36.5 °F 74% 30.08 in 10.0 mi SW 10.4 mph - N/A Rain Light Rain
6:55 PM 44.6 °F 39.7 °F 36.3 °F 73% 30.08 in 10.0 mi SW 9.2 mph - N/A   Overcast
7:15 PM 44.4 °F 40.5 °F 36.7 °F 74% 30.08 in 10.0 mi WSW 6.9 mph - N/A   Mostly Cloudy
7:35 PM 44.2 °F 39.2 °F 36.7 °F 75% 30.07 in 10.0 mi WSW 9.2 mph - N/A   Mostly Cloudy
7:55 PM 44.1 °F 39.0 °F 36.5 °F 75% 30.07 in 10.0 mi SW 9.2 mph - N/A   Overcast
8:15 PM 44.1 °F 39.5 °F 36.3 °F 74% 30.07 in 10.0 mi WSW 8.1 mph - N/A   Overcast
8:35 PM 44.6 °F 39.2 °F 34.9 °F 69% 30.07 in 10.0 mi West 10.4 mph - N/A   Overcast
8:55 PM 45.0 °F 40.6 °F 31.8 °F 60% 30.07 in 10.0 mi WNW 8.1 mph - N/A   Overcast
9:15 PM 45.0 °F 39.7 °F 27.5 °F 50% 30.08 in 10.0 mi WNW 10.4 mph 16.1 mph N/A   Overcast
9:35 PM 45.0 °F 39.3 °F 25.3 °F 46% 30.08 in 10.0 mi WNW 11.5 mph 17.3 mph N/A   Overcast
9:55 PM 44.6 °F 39.7 °F 24.8 °F 46% 30.08 in 10.0 mi WNW 9.2 mph - N/A   Overcast
10:15 PM 44.1 °F 40.1 °F 24.6 °F 46% 30.08 in 10.0 mi WNW 6.9 mph - N/A   Overcast
10:35 PM 43.9 °F 39.9 °F 25.2 °F 48% 30.08 in 10.0 mi WNW 6.9 mph - N/A   Overcast
10:55 PM 44.6 °F 39.2 °F 24.8 °F 46% 30.08 in 10.0 mi WNW 10.4 mph - N/A   Overcast
11:15 PM 42.8 °F 38.0 °F 24.6 °F 49% 30.08 in 10.0 mi WNW 8.1 mph - N/A   Mostly Cloudy
11:35 PM 41.4 °F 36.2 °F 24.8 °F 52% 30.08 in 10.0 mi West 8.1 mph - N/A   Clear
11:55 PM 41.0 °F 36.4 °F 25.2 °F 53% 30.08 in 10.0 mi West 6.9 mph - N/A   Clear